Time,TemperatureF,DewpointF,PressureIn,WindDirection,WindDirectionDegrees,WindSpeedMPH,WindSpeedGustMPH,Humidity,HourlyPrecipIn,Conditions,Clouds,dailyrainin,SoftwareType,DateUTC
2013-01-03 00:10:00,10.0,6.4,29.97,SW,225,3.7,-999.0,85,-99.99,,,0.00,Acu-Link.com,2013-01-03 06:10:00,
2013-01-03 00:25:00,9.7,6.1,29.97,South,180,1.7,-999.0,85,-99.99,,,0.00,Acu-Link.com,2013-01-03 06:25:00,
2013-01-03 00:40:00,9.1,5.5,29.97,NW,315,1.7,-999.0,85,-99.99,,,0.00,Acu-Link.com,2013-01-03 06:40:00,
2013-01-03 00:55:00,9.0,5.4,29.98,NNE,22,2.2,-999.0,85,-99.99,,,0.00,Acu-Link.com,2013-01-03 06:55:00,
2013-01-03 01:11:00,8.6,5.0,29.98,WNW,292,2.2,-999.0,85,-99.99,,,0.00,Acu-Link.com,2013-01-03 07:11:00,
2013-01-03 01:26:00,8.2,4.6,29.98,NNE,22,3.2,-999.0,85,-99.99,,,0.00,Acu-Link.com,2013-01-03 07:26:00,
2013-01-03 01:41:00,7.9,4.3,29.99,SSW,202,2.2,-999.0,85,-99.99,,,0.00,Acu-Link.com,2013-01-03 07:41:00,
2013-01-03 01:56:00,7.7,4.1,29.99,ENE,67,3.2,-999.0,85,-99.99,,,0.00,Acu-Link.com,2013-01-03 07:56:00,
2013-01-03 02:12:00,7.3,3.8,30.00,NE,45,2.7,-999.0,85,-99.99,,,0.00,Acu-Link.com,2013-01-03 08:12:00,
2013-01-03 02:27:00,6.8,3.3,30.01,SE,135,1.7,-999.0,85,-99.99,,,0.00,Acu-Link.com,2013-01-03 08:27:00,
2013-01-03 02:42:00,6.4,2.9,30.01,WSW,247,1.7,-999.0,85,-99.99,,,0.00,Acu-Link.com,2013-01-03 08:42:00,
2013-01-03 02:57:00,6.3,2.8,30.02,NNE,22,2.2,-999.0,85,-99.99,,,0.00,Acu-Link.com,2013-01-03 08:57:00,
2013-01-03 03:12:00,6.1,2.6,30.02,ESE,112,2.2,-999.0,85,-99.99,,,0.00,Acu-Link.com,2013-01-03 09:12:00,
2013-01-03 03:27:00,5.4,1.9,30.02,ESE,112,3.7,-999.0,85,-99.99,,,0.00,Acu-Link.com,2013-01-03 09:27:00,
2013-01-03 03:42:00,3.9,0.2,30.03,SSE,157,2.7,-999.0,84,-99.99,,,0.00,Acu-Link.com,2013-01-03 09:42:00,
2013-01-03 03:58:00,3.2,-0.5,30.03,SW,225,2.2,-999.0,84,-99.99,,,0.00,Acu-Link.com,2013-01-03 09:58:00,
2013-01-03 04:13:00,3.0,-0.7,30.04,South,180,1.7,-999.0,84,-99.99,,,0.00,Acu-Link.com,2013-01-03 10:13:00,
2013-01-03 04:28:00,2.5,-1.0,30.04,SSE,157,3.2,-999.0,85,-99.99,,,0.00,Acu-Link.com,2013-01-03 10:28:00,
2013-01-03 04:44:00,2.1,-1.4,30.04,ESE,112,1.7,-999.0,85,-99.99,,,0.00,Acu-Link.com,2013-01-03 10:44:00,
2013-01-03 04:59:00,1.8,-1.6,30.05,East,90,2.2,-999.0,85,-99.99,,,0.00,Acu-Link.com,2013-01-03 10:59:00,
2013-01-03 05:14:00,1.8,-1.6,30.06,West,270,2.7,-999.0,85,-99.99,,,0.00,Acu-Link.com,2013-01-03 11:14:00,
2013-01-03 05:29:00,1.4,-2.0,30.06,SW,225,1.7,-999.0,85,-99.99,,,0.00,Acu-Link.com,2013-01-03 11:29:00,
2013-01-03 05:44:00,1.0,-2.4,30.06,South,180,1.1,-999.0,85,-99.99,,,0.00,Acu-Link.com,2013-01-03 11:44:00,
2013-01-03 06:00:00,0.7,-2.7,30.07,NW,315,2.7,-999.0,85,-99.99,,,0.00,Acu-Link.com,2013-01-03 12:00:00,
2013-01-03 06:15:00,0.5,-2.7,30.07,West,270,1.1,-999.0,86,-99.99,,,0.00,Acu-Link.com,2013-01-03 12:15:00,
2013-01-03 06:30:00,0.1,-3.1,30.07,East,90,1.1,-999.0,86,-99.99,,,0.00,Acu-Link.com,2013-01-03 12:30:00,
2013-01-03 06:45:00,-0.2,-3.1,30.07,North,0,0.0,-999.0,87,-99.99,,,0.00,Acu-Link.com,2013-01-03 12:45:00,
2013-01-03 07:00:00,-0.8,-3.7,30.07,NE,45,0.0,-999.0,87,-99.99,,,0.00,Acu-Link.com,2013-01-03 13:00:00,
2013-01-03 07:16:00,-1.1,-3.8,30.07,ESE,112,0.0,-999.0,88,-99.99,,,0.00,Acu-Link.com,2013-01-03 13:16:00,
2013-01-03 07:31:00,-1.1,-3.5,30.08,ENE,67,0.0,-999.0,89,-99.99,,,0.00,Acu-Link.com,2013-01-03 13:31:00,
2013-01-03 07:47:00,-0.6,-3.0,30.08,SW,225,1.1,-999.0,89,-99.99,,,0.00,Acu-Link.com,2013-01-03 13:47:00,
2013-01-03 08:02:00,-0.2,-2.7,30.07,SW,225,1.7,-999.0,89,-99.99,,,0.00,Acu-Link.com,2013-01-03 14:02:00,
2013-01-03 08:17:00,0.1,-2.4,30.07,WSW,247,2.2,-999.0,89,-99.99,,,0.00,Acu-Link.com,2013-01-03 14:17:00,
2013-01-03 08:33:00,0.3,-2.4,30.08,NE,45,2.7,-999.0,88,-99.99,,,0.00,Acu-Link.com,2013-01-03 14:33:00,
2013-01-03 08:48:00,1.9,-1.5,30.08,East,90,1.7,-999.0,85,-99.99,,,0.00,Acu-Link.com,2013-01-03 14:48:00,
2013-01-03 09:04:00,3.6,-0.6,30.09,NNE,22,1.1,-999.0,82,-99.99,,,0.00,Acu-Link.com,2013-01-03 15:04:00,
2013-01-03 09:19:00,4.6,-0.2,30.09,East,90,2.2,-999.0,80,-99.99,,,0.00,Acu-Link.com,2013-01-03 15:19:00,
2013-01-03 09:34:00,6.8,1.1,30.09,NW,315,1.7,-999.0,77,-99.99,,,0.00,Acu-Link.com,2013-01-03 15:34:00,
2013-01-03 09:49:00,9.0,1.8,30.09,ESE,112,1.1,-999.0,72,-99.99,,,0.00,Acu-Link.com,2013-01-03 15:49:00,
2013-01-03 10:05:00,9.5,2.3,30.09,East,90,0.0,-999.0,72,-99.99,,,0.00,Acu-Link.com,2013-01-03 16:05:00,
2013-01-03 10:20:00,9.9,3.0,30.09,North,0,2.2,-999.0,73,-99.99,,,0.00,Acu-Link.com,2013-01-03 16:20:00,
2013-01-03 10:35:00,10.9,4.0,30.09,North,0,2.2,-999.0,73,-99.99,,,0.00,Acu-Link.com,2013-01-03 16:35:00,
2013-01-03 10:50:00,12.2,5.5,30.08,SE,135,1.1,-999.0,74,-99.99,,,0.00,Acu-Link.com,2013-01-03 16:50:00,
2013-01-03 11:05:00,13.5,5.6,30.08,East,90,4.2,-999.0,70,-99.99,,,0.00,Acu-Link.com,2013-01-03 17:05:00,
2013-01-03 11:21:00,14.2,6.6,30.08,SSE,157,4.2,-999.0,71,-99.99,,,0.00,Acu-Link.com,2013-01-03 17:21:00,
2013-01-03 11:36:00,13.8,5.5,30.07,West,270,2.2,-999.0,69,-99.99,,,0.00,Acu-Link.com,2013-01-03 17:36:00,
2013-01-03 11:51:00,13.8,5.5,30.08,West,270,2.7,-999.0,69,-99.99,,,0.00,Acu-Link.com,2013-01-03 17:51:00,
2013-01-03 12:06:00,14.5,5.9,30.06,West,270,3.2,-999.0,68,-99.99,,,0.00,Acu-Link.com,2013-01-03 18:06:00,
2013-01-03 12:21:00,14.5,6.5,30.05,ESE,112,1.7,-999.0,70,-99.99,,,0.00,Acu-Link.com,2013-01-03 18:21:00,
2013-01-03 12:37:00,15.3,6.3,30.04,SW,225,3.2,-999.0,67,-99.99,,,0.00,Acu-Link.com,2013-01-03 18:37:00,
2013-01-03 12:52:00,15.3,6.3,30.04,NW,315,3.2,-999.0,67,-99.99,,,0.00,Acu-Link.com,2013-01-03 18:52:00,
2013-01-03 13:07:00,12.9,5.0,30.04,West,270,3.7,-999.0,70,-99.99,,,0.00,Acu-Link.com,2013-01-03 19:07:00,
2013-01-03 14:08:00,14.9,6.0,30.03,SW,225,4.2,-999.0,67,-99.99,,,0.00,Acu-Link.com,2013-01-03 20:08:00,
2013-01-03 14:23:00,14.2,5.9,30.03,West,270,3.2,-999.0,69,-99.99,,,0.00,Acu-Link.com,2013-01-03 20:23:00,
2013-01-03 14:38:00,12.9,5.9,30.03,South,180,3.2,-999.0,73,-99.99,,,0.00,Acu-Link.com,2013-01-03 20:38:00,
2013-01-03 14:54:00,12.9,6.2,30.02,WSW,247,3.7,-999.0,74,-99.99,,,0.00,Acu-Link.com,2013-01-03 20:54:00,
2013-01-03 15:09:00,13.5,6.5,30.03,WSW,247,1.1,-999.0,73,-99.99,,,0.00,Acu-Link.com,2013-01-03 21:09:00,
2013-01-03 15:24:00,13.6,7.5,30.02,SE,135,1.7,-999.0,76,-99.99,,,0.00,Acu-Link.com,2013-01-03 21:24:00,
2013-01-03 15:39:00,13.1,7.3,30.02,West,270,1.7,-999.0,77,-99.99,,,0.00,Acu-Link.com,2013-01-03 21:39:00,
2013-01-03 15:55:00,12.7,7.4,30.02,South,180,3.2,-999.0,79,-99.99,,,0.00,Acu-Link.com,2013-01-03 21:55:00,
2013-01-03 16:10:00,12.6,7.6,30.02,South,180,3.2,-999.0,80,-99.99,,,0.00,Acu-Link.com,2013-01-03 22:10:00,
2013-01-03 16:25:00,11.8,7.4,30.02,ESE,112,2.7,-999.0,82,-99.99,,,0.00,Acu-Link.com,2013-01-03 22:25:00,
2013-01-03 16:40:00,11.3,7.4,30.02,East,90,2.2,-999.0,84,-99.99,,,0.00,Acu-Link.com,2013-01-03 22:40:00,
2013-01-03 16:56:00,10.9,7.3,30.01,East,90,0.0,-999.0,85,-99.99,,,0.00,Acu-Link.com,2013-01-03 22:56:00,
2013-01-03 17:11:00,10.8,7.7,30.00,East,90,2.2,-999.0,87,-99.99,,,0.00,Acu-Link.com,2013-01-03 23:11:00,
2013-01-03 17:26:00,10.8,8.0,30.00,South,180,1.7,-999.0,88,-99.99,,,0.00,Acu-Link.com,2013-01-03 23:26:00,
2013-01-03 17:41:00,10.9,8.3,29.99,SSW,202,3.7,-999.0,89,-99.99,,,0.00,Acu-Link.com,2013-01-03 23:41:00,
2013-01-03 17:56:00,11.1,8.5,29.98,West,270,2.7,-999.0,89,-99.99,,,0.00,Acu-Link.com,2013-01-03 23:56:00,
2013-01-03 18:12:00,11.3,8.9,29.98,SSW,202,3.2,-999.0,90,-99.99,,,0.00,Acu-Link.com,2013-01-04 00:12:00,
2013-01-03 18:27:00,11.7,9.1,29.96,ENE,67,3.7,-999.0,89,-99.99,,,0.00,Acu-Link.com,2013-01-04 00:27:00,
2013-01-03 18:42:00,12.4,10.0,29.96,SW,225,3.2,-999.0,90,-99.99,,,0.00,Acu-Link.com,2013-01-04 00:42:00,
2013-01-03 18:57:00,12.4,10.0,29.95,NNE,22,2.2,-999.0,90,-99.99,,,0.00,Acu-Link.com,2013-01-04 00:57:00,
2013-01-03 19:12:00,12.7,10.3,29.95,SSW,202,3.2,-999.0,90,-99.99,,,0.00,Acu-Link.com,2013-01-04 01:12:00,
2013-01-03 19:28:00,12.9,10.5,29.94,SE,135,3.2,-999.0,90,-99.99,,,0.00,Acu-Link.com,2013-01-04 01:28:00,
2013-01-03 19:43:00,12.9,10.5,29.93,SE,135,2.7,-999.0,90,-99.99,,,0.00,Acu-Link.com,2013-01-04 01:43:00,
2013-01-03 19:58:00,12.7,10.3,29.93,WNW,292,2.7,-999.0,90,-99.99,,,0.00,Acu-Link.com,2013-01-04 01:58:00,
2013-01-03 20:13:00,12.6,10.5,29.92,WNW,292,2.2,-999.0,91,-99.99,,,0.00,Acu-Link.com,2013-01-04 02:13:00,
2013-01-03 20:28:00,12.6,10.5,29.92,WSW,247,3.7,-999.0,91,-99.99,,,0.00,Acu-Link.com,2013-01-04 02:28:00,
2013-01-03 20:44:00,12.4,10.3,29.91,East,90,4.2,-999.0,91,-99.99,,,0.00,Acu-Link.com,2013-01-04 02:44:00,
2013-01-03 20:59:00,12.4,10.3,29.90,SW,225,2.7,-999.0,91,-99.99,,,0.00,Acu-Link.com,2013-01-04 02:59:00,
2013-01-03 21:14:00,12.4,10.3,29.90,WSW,247,1.7,-999.0,91,-99.99,,,0.00,Acu-Link.com,2013-01-04 03:14:00,
2013-01-03 21:29:00,12.2,10.1,29.90,South,180,4.7,-999.0,91,-99.99,,,0.00,Acu-Link.com,2013-01-04 03:29:00,
2013-01-03 21:45:00,12.4,10.3,29.89,SSW,202,3.7,-999.0,91,-99.99,,,0.00,Acu-Link.com,2013-01-04 03:45:00,
2013-01-03 22:00:00,12.7,10.6,29.89,SW,225,2.2,-999.0,91,-99.99,,,0.00,Acu-Link.com,2013-01-04 04:00:00,
2013-01-03 22:15:00,12.9,10.8,29.89,West,270,4.2,-999.0,91,-99.99,,,0.00,Acu-Link.com,2013-01-04 04:15:00,
2013-01-03 22:30:00,13.3,11.2,29.88,SSW,202,4.2,-999.0,91,-99.99,,,0.00,Acu-Link.com,2013-01-04 04:30:00,
2013-01-03 22:45:00,12.9,10.8,29.87,SW,225,7.3,-999.0,91,-99.99,,,0.00,Acu-Link.com,2013-01-04 04:45:00,
2013-01-03 23:16:00,13.5,11.4,29.87,West,270,2.2,-999.0,91,-99.99,,,0.00,Acu-Link.com,2013-01-04 05:16:00,
2013-01-03 23:31:00,14.0,11.9,29.87,NE,45,3.7,-999.0,91,-99.99,,,0.00,Acu-Link.com,2013-01-04 05:31:00,
2013-01-03 23:46:00,14.4,12.3,29.86,West,270,4.2,-999.0,91,-99.99,,,0.00,Acu-Link.com,2013-01-04 05:46:00,